Flag for Gambia Weather past 2 weeks in Serekunda, Gambia

Now
84 °F

Sunny.


Feels Like: 90 °F
Forecast: N/A
Wind: 14 mph from Northwest

Location: Banjul / Yundum

Current Time: May 25, 2015 at 6:28:00 PM

Latest Report: May 25, 2015 at 6:00 PM


Visibility: 10 mi

Pressure: 29.83 "Hg

Humidity: 66%

Dew point: 72 °F

Location of SerekundaLocation

Historic Weather in Serekunda — Graph

°F

Serekunda temperature yesterday

Maximum temperature yesterday: 95 °F (at 2:00 PM)
Minimum temperature yesterday: 75 °F (at 1:00 AM)
Average temperature yesterday: 81 °F

Past Weeks' High & Low Weather Summary

 TemperatureHumidityPressure
High95 °F (May 19, 4:00 AM)100% (May 14, 1:00 AM)30.01 "Hg (May 14, 1:00 AM)
Low72 °F (May 25, 5:00 AM)24% (May 17, 5:00 AM)29.77 "Hg (May 15, 4:00 PM)
Average80 °F72%29.87 "Hg
* Reported May 10 5:00 PM — May 25 5:00 PM, Serekunda, Weather by CustomWeather, © 2015

Note: Actual official high and low records may vary slightly from our data, if they occured in-between our weather recording intervals... More about our weather records

Advertising

Serekunda weather history for previous 24 hours

 ConditionsComfort  
Time TempWeatherWind HumidityBarometerVisibility
5:00 PM
Mon, May 25
88 °FSunny.12 mph55%29.83 "Hg10 mi
4:00 PM88 °FSunny.14 mph55%29.83 "Hg10 mi
3:00 PM90 °FSunny.14 mph52%29.83 "Hg10 mi
2:00 PM91 °FSunny.16 mph46%29.86 "Hg10 mi
1:00 PM91 °FSunny.10 mph41%29.92 "Hg10 mi
12:00 PM86 °FSunny.7 mph52%29.92 "Hg10 mi
11:00 AM84 °FSunny.12 mph55%29.92 "Hg10 mi
10:00 AM82 °FSunny.14 mph55%29.92 "Hg10 mi
9:00 AM79 °FSunny.10 mph74%29.92 "Hg10 mi
8:00 AM77 °FSunny.8 mph79%29.92 "Hg10 mi
7:00 AM73 °FSunny.9 mph94%29.89 "Hg10 mi
6:00 AM73 °FPassing clouds.No wind89%29.89 "HgN/A
5:00 AM72 °FClear.No wind94%29.89 "Hg10 mi
4:00 AM75 °FClear.6 mph89%29.89 "Hg10 mi
3:00 AM75 °FClear.10 mph83%29.89 "Hg10 mi
2:00 AM75 °FClear.12 mph89%29.92 "Hg10 mi
1:00 AM75 °FClear.No wind89%29.89 "Hg10 mi
12:00 AM77 °FClear.12 mph83%29.89 "Hg10 mi
11:00 PM
Sun, May 24
77 °FClear.6 mph83%29.89 "Hg10 mi
10:00 PM77 °FClear.10 mph79%29.89 "Hg10 mi
9:00 PM79 °FClear.13 mph74%29.86 "Hg10 mi
8:00 PM79 °FClear.9 mph74%29.83 "Hg10 mi
7:00 PM81 °FSunny.14 mph74%29.83 "Hg10 mi
6:00 PM84 °FSunny.21 mph66%29.83 "Hg10 mi
Weather by CustomWeather, © 2015

See weather overviewHow to use our weather pages